Weather History for Bellaire, MI

Change the Weather History Date:

Thursday, June 20, 2013

  Actual Average (KTVC) Record (KTVC)
Temperature  
Mean Temperature 62 °F 66 °F  
Max Temperature 82 °F 77 °F 98 °F (1933)
Min Temperature 43 °F 54 °F 36 °F (1961)
Degree Days  
Heating Degree Days 2 3  
Month to date heating degree days 93  
Since 1 June heating degree days 93  
Since 1 July heating degree days 7529  
Cooling Degree Days 0 3  
Month to date cooling degree days 40  
Year to date cooling degree days 60  
Since 1 June cooling degree days 40  
Growing Degree Days 12 (Base 50)    
Moisture  
Dew Point 49 °F    
Average Humidity 64    
Maximum Humidity 97    
Minimum Humidity 31    
Precipitation  
Precipitation 0.00 in 0.11 in 1.52 in (1979)
Month to date precipitation 1.99  
Year to date precipitation 13.54  
Sea Level Pressure  
Sea Level Pressure 30.14 in    
Wind  
Wind Speed 1 mph (SW)    
Max Wind Speed 7 mph    
Max Gust Speed -    
Visibility 10 miles    
Events      
T = Trace of Precipitation, MM = Missing Value Source: NWS Daily Summary

Daily Weather History Graph

Daily Weather History Graph

Search for Another Location

Airport:

Trip Planner

Search our weather history database for the weather conditions in past years. The results will help you decide how hot, cold, wet, or windy it might be!

Date:

Astronomy

Jun. 20, 2013 Rise Set
Actual Time 5:53 AM EDT 9:30 PM EDT
Civil Twilight 5:16 AM EDT 10:08 PM EDT
Nautical Twilight 4:26 AM EDT 10:58 PM EDT
Astronomical Twilight 3:20 AM EDT 12:04 AM EDT
Moon 6:27 PM EDT (6/20) 3:26 AM EDT (6/20)
Length of Visible Light 16h 51m
Length of Day
15h 37m
Waxing Gibbous, 89% of the Moon is Illuminated
Jun 20
Waxing Gibbous
Jun 23
Full
Jun 30
Last Quarter
Jul 8
New
Jul 15
First Quarter

Hourly Weather History & Observations

Time (EDT) Temp. Dew Point Humidity Pressure Visibility Wind Dir Wind Speed Gust Speed Precip Events Conditions
12:12 AM 50.4 °F 47.5 °F 90% 30.13 in 10.0 mi Calm Calm - N/A   Clear
12:32 AM 49.8 °F 47.5 °F 92% 30.13 in 10.0 mi Calm Calm - N/A   Clear
12:52 AM 47.8 °F 45.7 °F 92% 30.13 in 10.0 mi Calm Calm - N/A   Clear
1:13 AM 47.5 °F 46.2 °F 95% 30.13 in 10.0 mi Calm Calm - N/A   Clear
1:32 AM 47.8 °F 46.4 °F 95% 30.13 in 10.0 mi North - - N/A   Clear
1:52 AM 46.6 °F 45.1 °F 95% 30.13 in 10.0 mi Calm Calm - N/A   Clear
2:13 AM 46.9 °F 45.7 °F 95% 30.12 in 10.0 mi North - - N/A   Clear
2:32 AM 46.2 °F 45.1 °F 96% 30.12 in 10.0 mi Calm Calm - N/A   Clear
2:52 AM 46.4 °F 45.5 °F 97% 30.13 in 10.0 mi North - - N/A   Clear
3:13 AM 44.8 °F 43.7 °F 96% 30.13 in 10.0 mi Calm Calm - N/A   Clear
3:32 AM 45.5 °F 44.6 °F 97% 30.13 in 7.0 mi Calm Calm - N/A   Clear
3:52 AM 45.0 °F 44.1 °F 97% 30.14 in 10.0 mi North - - N/A   Clear
4:12 AM 44.6 °F 43.7 °F 97% 30.14 in 7.0 mi Calm Calm - N/A   Clear
4:32 AM 44.6 °F 43.7 °F 97% 30.14 in 7.0 mi Calm Calm - N/A   Clear
4:53 AM 44.6 °F 43.7 °F 97% 30.14 in 10.0 mi Calm Calm - N/A   Clear
5:12 AM 44.4 °F 43.7 °F 97% 30.14 in 7.0 mi Calm Calm - N/A   Clear
5:32 AM 43.3 °F 42.6 °F 97% 30.14 in 7.0 mi Calm Calm - N/A   Clear
5:53 AM 44.1 °F 43.3 °F 97% 30.15 in 10.0 mi Calm Calm - N/A   Clear
6:12 AM 43.9 °F 43.2 °F 97% 30.15 in 7.0 mi North - - N/A   Clear
6:32 AM 45.1 °F 44.4 °F 97% 30.16 in 10.0 mi Calm Calm - N/A   Clear
6:53 AM 46.4 °F 45.7 °F 97% 30.16 in 10.0 mi North - - N/A   Clear
7:12 AM 48.9 °F 47.7 °F 95% 30.16 in 10.0 mi North - - N/A   Clear
7:32 AM 52.7 °F 49.8 °F 90% 30.16 in 10.0 mi Calm Calm - N/A   Clear
7:53 AM 57.0 °F 50.7 °F 79% 30.16 in 10.0 mi Calm Calm - N/A   Clear
8:12 AM 60.3 °F 51.6 °F 73% 30.17 in 10.0 mi South 3.5 mph - N/A   Clear
8:33 AM 63.0 °F 49.8 °F 62% 30.17 in 10.0 mi South 4.6 mph - N/A   Clear
8:52 AM 64.8 °F 49.6 °F 58% 30.17 in 10.0 mi SSW 5.8 mph - N/A   Clear
9:12 AM 66.4 °F 47.5 °F 51% 30.17 in 10.0 mi South 4.6 mph - N/A   Clear
9:33 AM 67.5 °F 45.9 °F 46% 30.17 in 10.0 mi North - - N/A   Clear
9:52 AM 68.7 °F 47.1 °F 46% 30.17 in 10.0 mi North - - N/A   Clear
10:12 AM 69.4 °F 46.8 °F 44% 30.17 in 10.0 mi SSW 5.8 mph - N/A   Clear
10:33 AM 70.0 °F 46.9 °F 44% 30.16 in 10.0 mi North - - N/A   Clear
10:52 AM 71.2 °F 47.1 °F 42% 30.17 in 10.0 mi North - - N/A   Clear
11:12 AM 72.7 °F 47.3 °F 40% 30.17 in 10.0 mi SW 3.5 mph - N/A   Clear
11:32 AM 73.6 °F 47.5 °F 39% 30.17 in 10.0 mi SW 5.8 mph - N/A   Clear
11:52 AM 75.2 °F 47.3 °F 37% 30.18 in 10.0 mi North - - N/A   Clear
12:13 PM 75.6 °F 45.7 °F 35% 30.18 in 10.0 mi North - - N/A   Clear
12:32 PM 76.1 °F 45.5 °F 34% 30.18 in 10.0 mi North - - N/A   Clear
12:52 PM 77.4 °F 46.4 °F 33% 30.17 in 10.0 mi SW 3.5 mph - N/A   Clear
1:13 PM 77.5 °F 46.8 °F 34% 30.17 in 10.0 mi West 5.8 mph - N/A   Clear
1:32 PM 78.6 °F 46.9 °F 33% 30.17 in 10.0 mi West 4.6 mph - N/A   Clear
1:53 PM 78.8 °F 48.0 °F 34% 30.17 in 10.0 mi West 5.8 mph - N/A   Clear
2:13 PM 79.0 °F 48.2 °F 34% 30.16 in 10.0 mi Calm Calm - N/A   Clear
2:32 PM 79.5 °F 49.1 °F 34% 30.16 in 10.0 mi North - - N/A   Clear
2:53 PM 80.1 °F 49.6 °F 34% 30.15 in 10.0 mi Calm Calm - N/A   Clear
3:12 PM 80.1 °F 48.9 °F 34% 30.15 in 10.0 mi West 3.5 mph - N/A   Clear
3:32 PM 80.1 °F 47.8 °F 32% 30.15 in 10.0 mi Calm Calm - N/A   Clear
3:53 PM 80.8 °F 48.4 °F 32% 30.15 in 10.0 mi West 3.5 mph - N/A   Clear
4:12 PM 81.1 °F 48.6 °F 32% 30.14 in 10.0 mi South 3.5 mph - N/A   Clear
4:33 PM 81.5 °F 48.7 °F 32% 30.13 in 10.0 mi South 3.5 mph - N/A   Clear
4:53 PM 81.5 °F 48.6 °F 32% 30.12 in 10.0 mi Calm Calm - N/A   Clear
5:12 PM 82.0 °F 49.3 °F 32% 30.13 in 10.0 mi West 6.9 mph - N/A   Clear
5:33 PM 82.0 °F 49.3 °F 32% 30.12 in 10.0 mi SSW 3.5 mph - N/A   Clear
5:53 PM 81.9 °F 49.5 °F 32% 30.12 in 10.0 mi West 5.8 mph - N/A   Clear
6:12 PM 81.9 °F 49.5 °F 32% 30.11 in 10.0 mi Calm Calm - N/A   Clear
6:33 PM 82.4 °F 49.3 °F 31% 30.10 in 10.0 mi South 3.5 mph - N/A   Clear
6:53 PM 82.0 °F 50.2 °F 33% 30.10 in 10.0 mi Calm Calm - N/A   Clear
7:12 PM 81.5 °F 51.3 °F 35% 30.10 in 10.0 mi NW 3.5 mph - N/A   Clear
7:33 PM 81.7 °F 50.9 °F 34% 30.10 in 10.0 mi Calm Calm - N/A   Clear
7:52 PM 80.8 °F 52.5 °F 37% 30.10 in 10.0 mi Calm Calm - N/A   Clear
8:12 PM 78.4 °F 56.3 °F 46% 30.11 in 10.0 mi WNW 3.5 mph - N/A   Clear
8:33 PM 73.6 °F 59.0 °F 60% 30.12 in 10.0 mi North - - N/A   Clear
8:52 PM 70.9 °F 59.4 °F 67% 30.12 in 10.0 mi Calm Calm - N/A   Clear
9:13 PM 70.0 °F 59.0 °F 68% 30.13 in 10.0 mi Calm Calm - N/A   Clear
9:33 PM 67.8 °F 59.0 °F 73% 30.13 in 10.0 mi Calm Calm - N/A   Clear
9:52 PM 66.6 °F 58.3 °F 75% 30.13 in 10.0 mi Calm Calm - N/A   Clear
10:13 PM 64.4 °F 59.0 °F 83% 30.14 in 10.0 mi Calm Calm - N/A   Clear
10:33 PM 63.5 °F 59.0 °F 85% 30.15 in 10.0 mi North - - N/A   Clear
10:52 PM 62.1 °F 58.5 °F 88% 30.15 in 10.0 mi North - - N/A   Clear
11:13 PM 60.1 °F 57.7 °F 92% 30.16 in 10.0 mi NNE 3.5 mph - N/A   Clear
11:32 PM 60.3 °F 58.1 °F 93% 30.16 in 10.0 mi North - - N/A   Clear
11:52 PM 60.1 °F 57.9 °F 93% 30.16 in 10.0 mi Calm Calm - N/A   Clear